#timestamp,LO_Frequency,Hit 
1501768815.8,286047079.7,N
1501768835.6,286047079.9,N
1501768855.4,286047079.3,N
1501768875.3,286047076.7,N
1501768895.1,286047079.2,N
1501768896.0,286047079.2,N
1501768915.8,286047081.1,N
1501768935.7,286047078.4,N
1501768955.5,286047079.2,N
1501768975.3,286047078.5,N
1501768995.2,286047084.2,N
1501769015.9,286047086.1,N
1501769035.7,286047089.5,N
1501769055.6,286047091.7,N
1501769075.4,286047092.2,N
1501769095.2,286047089.6,N
1501769115.0,286047088.8,N
1501769116.0,286047088.8,N
1501769135.8,286047085.4,N
1501769155.6,286047083.4,N
1501769175.4,286047085.5,N
1501769195.3,286047087.5,N
1501769215.1,286047086.1,N
1501769235.8,286047085.0,N
1501769255.7,286047086.0,N
1501769275.5,286047082.9,N
1501769295.3,286047086.9,N
1501769315.2,286047085.4,N
1501769335.9,286047083.7,N
1501769355.7,286047084.4,N
1501769375.6,286047084.3,N
1501769395.4,286047083.9,N
1501769415.2,286047085.7,N
1501769435.0,286047087.3,N
1501769435.9,286047087.3,N
1501769455.8,286047083.9,N
1501769475.6,286047081.5,N
1501769495.4,286047083.1,N
1501769515.3,286047085.9,N
1501769535.1,286047083.3,N
1501769555.8,286047084.4,N
1501769575.7,286047083.4,N
1501769595.5,286047083.8,N
1501769615.3,286047085.2,N
1501769635.2,286047087.2,N
1501769655.9,286047086.0,N
1501769675.7,286047085.7,N
1501769695.6,286047085.0,N
1501769715.4,286047087.1,N
1501769735.2,286047085.3,N
1501769755.0,286047086.2,N
1501769755.9,286047086.2,N
1501769775.8,286047087.2,N
1501769795.6,286047086.2,N
1501769815.4,286047087.5,N
1501769835.3,286047085.9,N
1501769855.1,286047082.9,N
1501769875.8,286047084.2,N
1501769895.7,286047083.0,N
1501769915.5,286047084.6,N
1501769935.3,286047089.0,N
1501769955.2,286047092.1,N
1501769975.9,286047093.0,N
1501769995.7,286047097.2,N
1501770015.5,286047100.0,N
1501770035.4,286047095.7,N
1501770055.2,286047094.5,N
1501770075.0,286047093.5,N
1501770075.9,286047093.5,N
1501770095.8,286047090.9,N
1501770115.6,286047093.7,N
1501770135.4,286047092.6,N
1501770155.3,286047093.9,N
1501770175.1,286047093.4,N
1501770176.0,286047093.4,N
1501770195.8,286047093.8,N
1501770215.7,286047091.7,N
1501770235.5,286047089.7,N
1501770255.3,286047088.2,N
1501770275.2,286047090.2,N
1501770295.9,286047091.8,N
1501770315.7,286047091.7,N
1501770335.5,286047091.9,N
1501770355.4,286047091.7,N
1501770375.2,286047091.4,N
1501770395.0,286047089.7,N
1501770395.9,286047089.7,N
1501770415.8,286047090.1,N
1501770435.6,286047090.0,N
1501770455.4,286047090.8,N
1501770475.3,286047088.5,N
1501770495.1,286047089.0,N
1501770496.0,286047089.0,N
1501770515.8,286047084.9,N
1501770535.7,286047084.2,N
1501770555.5,286047082.5,N
1501770575.3,286047081.7,N
1501770595.1,286047085.9,N
1501770615.9,286047084.1,N
1501770635.7,286047081.6,N
1501770655.5,286047081.3,N
1501770675.4,286047079.9,N
1501770695.2,286047081.0,N
1501770715.0,286047081.2,N
1501770715.9,286047081.2,N
1501770735.8,286047080.3,N
1501770755.6,286047078.6,N
1501770775.4,286047079.9,N
1501770795.3,286047081.5,N
1501770815.1,286047081.8,N
1501770816.0,286047081.8,N
1501770835.8,286047079.9,N
1501770855.7,286047078.7,N
1501770875.5,286047079.2,N
1501770895.3,286047075.3,N
1501770915.1,286047073.9,N
1501770935.9,286047074.2,N
1501770955.7,286047073.8,N
1501770975.5,286047072.6,N
1501770995.4,286047072.7,N
1501771015.2,286047072.9,N
1501771035.0,286047072.7,N
1501771035.9,286047072.7,N
1501771055.8,286047071.2,N
1501771075.6,286047069.3,N
1501771095.4,286047069.5,N
1501771115.3,286047067.2,N
1501771135.1,286047069.7,N
1501771136.0,286047069.7,N
1501771155.8,286047067.2,N
1501771175.6,286047067.7,N
1501771195.5,286047068.6,N
1501771215.3,286047071.4,N
1501771235.1,286047072.9,N
1501771255.9,286047074.7,N
1501771275.7,286047075.7,N
1501771295.5,286047073.4,N
1501771315.4,286047074.3,N
1501771335.2,286047075.0,N
1501771355.0,286047079.6,N
1501771355.9,286047079.6,N
1501771375.8,286047078.6,N
1501771395.6,286047079.3,N
1501771415.4,286047079.5,N
1501771435.3,286047080.3,N
1501771455.1,286047078.4,N
1501771456.0,286047078.4,N
1501771475.8,286047081.5,N
1501771495.6,286047084.4,N
1501771515.5,286047081.3,N
1501771535.3,286047081.6,N
1501771555.1,286047081.3,N
1501771575.9,286047081.0,N
1501771595.7,286047079.8,N
1501771615.5,286047080.2,N
1501771635.4,286047082.1,N
1501771655.2,286047078.1,N
1501771675.0,286047081.2,N
1501771675.9,286047081.2,N
1501771695.8,286047082.5,N
1501771715.6,286047092.1,N
1501771735.4,286047093.5,N
1501771755.2,286047097.2,N
1501771775.1,286047097.2,N
1501771776.0,286047097.2,N
1501771795.8,286047100.1,N
1501771815.6,286047106.4,N
1501771835.5,286047103.6,N
1501771855.3,286047100.8,N
1501771875.1,286047101.6,N
1501771895.9,286047103.2,N
1501771915.7,286047104.1,N
1501771935.5,286047108.2,N
1501771955.4,286047106.5,N
1501771975.2,286047102.2,N
1501771995.0,286047101.8,N
1501771995.9,286047101.8,N
1501772015.7,286047100.9,N
1501772035.6,286047101.7,N
1501772055.4,286047099.0,N
1501772075.2,286047100.6,N
1501772095.1,286047106.7,N
1501772096.0,286047106.7,N
1501772115.8,286047105.8,N
1501772135.6,286047104.2,N
1501772155.5,286047105.0,N
1501772175.3,286047102.1,N
1501772195.1,286047104.7,N
1501772215.9,286047102.8,N
1501772235.7,286047106.7,N
1501772255.5,286047104.6,N
1501772275.3,286047108.2,N
1501772295.2,286047105.9,N
1501772315.0,286047102.4,N
1501772315.9,286047102.4,N
1501772335.7,286047104.9,N
1501772355.6,286047104.7,N
1501772375.4,286047101.7,N
1501772395.2,286047101.4,N
